User: anonymous   Login
Location: Unspecified
(0.0000°N, 0.0000°E)
Time: 13:16:57
(UTC+00:00)
Language:

Explorer 11/Cluster Stage 4 - Orbit

View from above orbital plane
View from above orbital plane
View from above satellite
View from above satellite

Ground track
Ground track

The orbit data is extracted from the following two-line orbital elements,

1 00107U 61013A   16239.84415544  .00000474  00000-0  44688-4 0  9994
2 00107  28.7890 110.4045 0550723 346.3688  12.2536 14.07944677769548
Epoch (UTC): 26 August 2016 20:15:35
Eccentricity: 0.0550723
inclination: 28.7890°
perigee height: 467 km
apogee height: 1265 km
right ascension of ascending node: 110.4045°
argument of perigee: 346.3688°
revolutions per day: 14.07944677
mean anomaly at epoch: 12.2536°
orbit number at epoch: 76954

The dashed part of the orbit path shows where the satellite is in the earth's shadow,  

DLR